Flag for Faroe Islands Weather past 2 weeks in Tórshavn, Faroe Islands, Faroe Islands

Now
32 °F

Snow flurries. Low clouds.


Feels Like: 26 °F
Forecast: 34 / 44 °F
Wind: 6 mph from West

Location: Soervaag / Vagar

Current Time: Mar 4, 2015 at 1:23:18 AM

Latest Report: Mar 4, 2015 at 12:50 AM


Visibility: 2 mi

Pressure: 29.65 "Hg

Humidity: 93%

Dew point: 30 °F

Location of TórshavnLocation

Historic Weather in Tórshavn — Graph

°F

Tórshavn temperature yesterday

Maximum temperature yesterday: 36 °F (at 2:20 AM)
Minimum temperature yesterday: 28 °F (at 3:20 AM)
Average temperature yesterday: 32 °F

Past Weeks' High & Low Weather Summary

 TemperatureHumidityPressure
High48 °F (Feb 18, 4:50 AM)100% (Feb 17, 12:50 AM)29.83 "Hg (Feb 17, 12:50 AM)
Low23 °F (Feb 22, 3:50 AM)51% (Feb 21, 7:50 PM)28.32 "Hg (Feb 23, 4:20 AM)
Average37 °F81%29.07 "Hg
* Reported Feb 17 12:20 AM — Mar 4 12:20 AM, Tórshavn, Weather by CustomWeather, © 2015

Note: Actual official high and low records may vary slightly from our data, if they occured in-between our weather recording intervals... More about our weather records

Advertising

Tórshavn weather history for previous 24 hours

 ConditionsComfort  
Time TempWeatherWind HumidityBarometerVisibility
12:20 AM
Wed, Mar 4
30 °FSnow flurries. Passing clouds.1 mph86%29.62 "HgN/A
11:50 PM
Tue, Mar 3
30 °FSnow flurries. Partly cloudy.No wind93%29.59 "HgN/A
11:20 PM28 °FPassing clouds.2 mph86%29.59 "HgN/A
10:50 PM30 °FChilly.1 mph86%29.56 "HgN/A
10:20 PM32 °FPassing clouds.2 mph80%29.53 "HgN/A
9:20 PM34 °FChilly.9 mph87%29.50 "HgN/A
8:50 PM28 °FPassing clouds.5 mph86%29.47 "HgN/A
8:20 PM30 °FPassing clouds.1 mph86%29.47 "HgN/A
7:50 PM28 °FPassing clouds.1 mph86%29.45 "HgN/A
7:20 PM28 °FPassing clouds.2 mph86%29.42 "HgN/A
6:50 PM28 °FChilly.1 mph93%29.42 "HgN/A
6:20 PM30 °FChilly.1 mph86%29.39 "HgN/A
5:50 PM30 °FChilly.1 mph93%29.36 "HgN/A
5:20 PM32 °FPassing clouds.No wind87%29.36 "HgN/A
4:50 PM34 °FPartly sunny.1 mph87%29.33 "HgN/A
4:20 PM34 °FDrizzle. Broken clouds.1 mph87%29.33 "HgN/A
3:50 PM34 °FBroken clouds.No wind87%29.30 "HgN/A
3:20 PM34 °FScattered clouds.3 mph87%29.30 "HgN/A
2:50 PM34 °FPartly sunny.1 mph87%29.27 "HgN/A
2:20 PM36 °FPassing clouds.1 mph87%29.27 "HgN/A
1:50 PM36 °FChilly.2 mph81%29.24 "HgN/A
1:20 PM34 °FScattered clouds.No wind87%29.24 "HgN/A
12:50 PM34 °FPartly sunny.7 mph87%29.24 "HgN/A
12:20 PM34 °FSprinkles. Partly sunny.10 mph87%29.24 "HgN/A
11:50 AM34 °FLight rain. Partly sunny.17 mph93%29.24 "Hg4 mi
11:20 AM34 °FPartly sunny.7 mph87%29.21 "HgN/A
10:50 AM34 °FPartly sunny.7 mph81%29.21 "HgN/A
10:20 AM36 °FSprinkles. Partly sunny.8 mph75%29.21 "HgN/A
9:50 AM34 °FBroken clouds.8 mph81%29.21 "HgN/A
9:20 AM32 °FSprinkles. Partly sunny.2 mph93%29.18 "HgN/A
8:50 AM34 °FSprinkles. Partly sunny.12 mph93%29.18 "Hg1 mi
8:20 AM36 °FSnow flurries. Partly sunny.10 mph81%29.18 "HgN/A
7:50 AM34 °FSnow flurries. Partly sunny.9 mph87%29.15 "HgN/A
7:20 AM34 °FPassing clouds.No wind87%29.15 "HgN/A
6:50 AM34 °FLight freezing rain. Partly cloudy.7 mph93%29.15 "Hg2 mi
6:20 AM32 °FSnow flurries. Passing clouds.8 mph100%29.15 "Hg4 mi
5:50 AM32 °FPassing clouds.2 mph93%29.15 "HgN/A
5:20 AM30 °FSnow flurries. Passing clouds.1 mph100%29.15 "HgN/A
4:50 AM30 °FSnow flurries. Passing clouds.2 mph93%29.15 "HgN/A
4:20 AM30 °FLight snow. Passing clouds.1 mph100%29.15 "Hg2 mi
3:50 AM28 °FPassing clouds.2 mph93%29.15 "HgN/A
3:20 AM28 °FPassing clouds.1 mph93%29.15 "HgN/A
2:50 AM32 °FSnow flurries. Passing clouds.7 mph93%29.15 "Hg3 mi
2:20 AM36 °FSnow flurries. Overcast.10 mph75%29.15 "Hg1 mi
1:50 AM34 °FSnow flurries. Passing clouds.9 mph87%29.15 "HgN/A
1:20 AM34 °FSnow flurries. Mostly cloudy.16 mph81%29.15 "Hg1 mi
Weather by CustomWeather, © 2015

See weather overviewHow to use our weather pages